Weather History for EHAM - September, 2013

Change the Weather History Date:

Friday, September 13, 2013

  Actual Average Record
Temperature  
Mean Temperature 56 °F -  
Max Temperature 62 °F 61 °F 78 °F (2006)
Min Temperature 51 °F 48 °F 42 °F (1998)
Degree Days  
Heating Degree Days 8    
Growing Degree Days 6 (Base 50)    
Moisture  
Dew Point 55 °F    
Average Humidity 92    
Maximum Humidity 100    
Minimum Humidity 71    
Precipitation  
Precipitation 0.02 in - - ()
Sea Level Pressure  
Sea Level Pressure 30.05 in    
Wind  
Wind Speed 6 mph ()    
Max Wind Speed 15 mph    
Max Gust Speed -    
Visibility 4.8 miles    
Events Fog , Rain    
Averages and records for this station are not official NWS values.
T = Trace of Precipitation, MM = Missing Value Source: Averaged Metar Reports

Daily Weather History Graph

Daily Weather History Graph

Search for Another Location

Airport or City:

Trip Planner

Search our weather history database for the weather conditions in past years. The results will help you decide how hot, cold, wet, or windy it might be!

Date:

Astronomy

Sep. 13, 2013 Rise Set
Actual Time 7:11 AM CEST 8:00 PM CEST
Civil Twilight 6:37 AM CEST 8:34 PM CEST
Nautical Twilight 5:56 AM CEST 9:15 PM CEST
Astronomical Twilight 5:11 AM CEST 9:59 PM CEST
Moon 4:09 PM CEST (9/13) No Moon Set
Length of Visible Light 13h 57m
Length of Day
12h 48m
First Quarter, 58% of the Moon is Illuminated
Sep 13
First Quarter
Sep 19
Full
Sep 27
Last Quarter
Oct 5
New
Oct 12
First Quarter

Hourly Weather History & Observations

Time (CEST) Temp. Dew Point Humidity Pressure Visibility Wind Dir Wind Speed Gust Speed Precip Events Conditions
12:25 AM 57.2 °F 55.4 °F 94% 30.06 in 6.2 mi NNW 1.2 mph - N/A   Partly Cloudy
12:55 AM 55.4 °F 53.6 °F 94% 30.06 in 6.2 mi NNW 2.3 mph - N/A   Partly Cloudy
1:25 AM 53.6 °F 53.6 °F 100% 30.06 in 6.2 mi Calm Calm - N/A Fog Shallow Fog
1:55 AM 51.8 °F 51.8 °F 100% 30.06 in 6.2 mi Variable 2.3 mph - N/A Fog Shallow Fog
2:00 AM 53 °F 52 °F 94% 30.09 in 12 mi SSW 2.2 mph - -   Partly Cloudy
2:25 AM 51.8 °F 51.8 °F 100% 30.06 in 6.2 mi South 3.5 mph - N/A Fog Shallow Fog
2:55 AM 53.6 °F 51.8 °F 94% 30.06 in 6.2 mi SW 5.8 mph - N/A Fog Shallow Fog
3:25 AM 51.8 °F 51.8 °F 100% 30.06 in 6.2 mi South 3.5 mph - N/A Fog Shallow Fog
3:55 AM 51.8 °F 51.8 °F 100% 30.06 in 6.2 mi SSW 3.5 mph - N/A Fog Shallow Fog
4:25 AM 53.6 °F 53.6 °F 100% 30.06 in 6.2 mi SE 2.3 mph - N/A Fog Shallow Fog
4:55 AM 53.6 °F 53.6 °F 100% 30.06 in 6.2 mi South 1.2 mph - N/A Fog Shallow Fog
5:00 AM 54 °F 54 °F 98% 30.08 in 7 mi South 2.2 mph - -   Mostly Cloudy
5:25 AM 53.6 °F 53.6 °F 100% 30.06 in 6.2 mi South 3.5 mph - N/A Fog Shallow Fog
5:55 AM 55.4 °F 55.4 °F 100% 30.06 in 6.2 mi SSW 5.8 mph - N/A Fog Shallow Fog
6:25 AM 53.6 °F 53.6 °F 100% 30.06 in 6.2 mi SSW 6.9 mph - N/A Fog Shallow Fog
6:55 AM 53.6 °F 51.8 °F 94% 30.06 in 6.2 mi South 5.8 mph - N/A   Partly Cloudy
7:25 AM 53.6 °F 51.8 °F 94% 30.06 in 6.2 mi SSW 8.1 mph - N/A   Partly Cloudy
7:55 AM 55.4 °F 53.6 °F 94% 30.06 in - South 6.9 mph - N/A   Clear
8:25 AM 57.2 °F 55.4 °F 94% 30.06 in - South 6.9 mph - N/A   Clear
8:55 AM 59.0 °F 55.4 °F 88% 30.06 in - SSW 9.2 mph - N/A   Clear
9:25 AM 60.8 °F 55.4 °F 82% 30.06 in - SSW 11.5 mph - N/A   Clear
10:25 AM 60.8 °F 53.6 °F 77% 30.06 in - SSW 12.7 mph - N/A   Clear
10:55 AM 60.8 °F 53.6 °F 77% 30.06 in - SSW 12.7 mph - N/A   Clear
11:00 AM 61 °F 54 °F 71% 30.09 in 8 mi South 13.4 mph - -   Overcast
11:25 AM 62.6 °F 55.4 °F 77% 30.06 in - SSW 12.7 mph - N/A   Clear
11:55 AM 60.8 °F 53.6 °F 77% 30.06 in 6.2 mi SSW 13.8 mph - N/A   Partly Cloudy
12:25 PM 60.8 °F 53.6 °F 77% 30.06 in 6.2 mi SSW 11.5 mph - N/A   Partly Cloudy
12:55 PM 60.8 °F 53.6 °F 77% 30.06 in 6.2 mi South 13.8 mph - N/A   Partly Cloudy
1:25 PM 60.8 °F 53.6 °F 77% 30.06 in 6.2 mi SSW 12.7 mph - N/A Rain Light Rain
1:55 PM 60.8 °F 53.6 °F 77% 30.06 in 6.2 mi SSW 13.8 mph - N/A Rain Light Rain
2:25 PM 60.8 °F 53.6 °F 77% 30.06 in 6.2 mi SSW 15.0 mph - N/A Rain Light Rain
2:55 PM 59.0 °F 55.4 °F 88% 30.06 in 6.2 mi SSW 12.7 mph - N/A Rain Light Rain
3:25 PM 60.8 °F 55.4 °F 82% 30.06 in 6.2 mi South 12.7 mph - N/A   Mostly Cloudy
3:55 PM 60.8 °F 53.6 °F 77% 30.06 in 6.2 mi South 12.7 mph - N/A   Mostly Cloudy
4:25 PM 60.8 °F 55.4 °F 82% 30.06 in 4.3 mi South 15.0 mph - N/A   Light Drizzle
4:55 PM 60.8 °F 57.2 °F 88% 30.04 in 3.1 mi South 12.7 mph - N/A   Light Drizzle
5:00 PM 60 °F 57 °F 88% 30.06 in 6 mi South 13.4 mph - - Rain Light Drizzle
5:25 PM 59.0 °F 57.2 °F 94% 30.04 in 4.3 mi South 12.7 mph - N/A   Light Drizzle
5:55 PM 59.0 °F 57.2 °F 94% 30.04 in 1.6 mi South 13.8 mph - N/A   Light Drizzle
6:25 PM 59.0 °F 59.0 °F 100% 30.04 in 1.9 mi South 10.4 mph - N/A   Drizzle
6:55 PM 59.0 °F 59.0 °F 100% 30.04 in 1.6 mi South 10.4 mph - N/A   Light Drizzle
7:25 PM 59.0 °F 59.0 °F 100% 30.01 in 1.6 mi South 11.5 mph - N/A   Light Drizzle
7:55 PM 59.0 °F 59.0 °F 100% 30.01 in 1.9 mi South 10.4 mph - N/A   Light Drizzle
8:00 PM 59 °F 58 °F 97% 30.03 in 2 mi South 11.2 mph - -   Mist
8:25 PM 59.0 °F 59.0 °F 100% 30.01 in 1.4 mi South 10.4 mph - N/A   Light Drizzle
8:55 PM 59.0 °F 59.0 °F 100% 30.01 in 1.9 mi South 9.2 mph - N/A   Light Drizzle
9:25 PM 59.0 °F 59.0 °F 100% 30.01 in 1.9 mi South 10.4 mph - N/A   Light Drizzle
9:55 PM 59.0 °F 59.0 °F 100% 30.01 in 2.2 mi South 9.2 mph - N/A   Overcast
10:25 PM 59.0 °F 59.0 °F 100% 30.01 in 1.9 mi South 9.2 mph - N/A   Light Drizzle
10:55 PM 59.0 °F 59.0 °F 100% 29.98 in 1.9 mi South 9.2 mph - N/A   Overcast
11:00 PM 59 °F 59 °F 100% 30.00 in 2 mi South 8.9 mph - -   Mist
11:25 PM 59.0 °F 59.0 °F 100% 29.98 in 1.9 mi South 8.1 mph - N/A   Light Drizzle
11:55 PM 59.0 °F 59.0 °F 100% 29.98 in 1.9 mi South 9.2 mph - N/A   Light Drizzle